SENTINEL-3B (43437 NORAD) Tracking and Keplerian Element Data

This shows tracking and keplerian element data for the satellite.

Feedback or suggestion? Click here.




ElementValue
Catalog43437
NameSENTINEL-3B
Epoch Orbit2908
Epoch Day319.7831092
Epoch Year2018
RAAN24.7534
Inclination98.6237
Eccentricity0.000493
Argument of Perigee192.673
Mean Anonmoly167.4328
Mean Motion14.28054569
Decay Rate-4E-08
L11 43437U 18039A 18319.78310920 -.00000004 00000-0 15867-4 0 9990
L22 43437 98.6237 24.7534 0004930 192.6730 167.4328 14.28054569 29081

Live tracking and technical data element details for SENTINEL-3B (NORAD 43437). SENTINEL-3B can be tracked NOW for your location showing map with azimuth and elevation plus other details from your city location.

Track the satellite on the map from your city or location and see movement details for azimuth, elevation, latitude, longitude, range, height, and movement on the map or in text.







IsCatalogInMostPopularTable: catalog: 43437, numindb: 149
Update: records affected: 1



GetName: 43437 SENTINEL-3B

Hit Count: updated at: Sat, 17 Nov 2018 04:37:43 GMT